Presure
124 125 117 180 189 195 179 215 174 184 181 184 130 211 174 214 220 244 241 139 242 206 212 205 265 263 200 200 207 194 201 204 217 223 230 235 233 235 229 222 221 228 243 264 219 239 248
132 122 115 193 167 177 115 174 160 171 176 175 168 126 175 139 172 201 192 200 199 200 198 220 240 170 224 213 205 204 197 211 224 242 329 368 364 359 355 307 322 348 238 231 224 245 208
171 119 146 197 177 155 162 136 182 154 185 179 185 199 192 179 170 180 200 178 190 205 190 125 153 202 192 215 194 190 211 265 376 361 393 399 286 420 426 412 399 394 394 410 306 216 231
189 121 178 155 199 139 154 146 155 172 184 207 167 209 201 218 179 219 190 187 192 202 181 228 202 203 209 215 205 237 308 364 475 440 403 378 375 369 369 377 371 371 383 387 407 454 219
192 119 194 167 192 195 158 158 194 151 179 195 177 204 210 175 215 189 224 181 171 173 180 211 215 216 218 194 238 240 360 412 381 362 352 350 357 353 347 344 350 350 371 361 388 426 257
192 192 190 174 179 195 130 176 174 205 188 191 194 195 184 214 213 212 195 216 210 182 185 191 196 208 211 234 240 376 189 375 348 343 360 341 351 380 402 385 351 342 347 353 310 393 422
204 190 191 193 185 177 159 196 185 164 204 197 179 166 163 167 200 163 203 194 221 179 162 170 188 208 213 247 288 239 379 346 348 336 319 323 326 332 342 362 364 372 373 368 370 388 403
193 186 190 192 195 186 125 193 186 172 170 189 193 210 187 184 197 228 223 168 219 172 175 182 193 208 224 258 326 424 365 342 322 308 312 307 300 307 314 321 329 358 362 356 359 371 389
202 201 201 175 192 190 194 191 188 179 167 167 176 189 207 194 186 212 203 221 210 195 187 188 199 202 239 260 327 396 361 327 308 299 298 302 303 295 300 306 322 334 339 351 354 370 394
210 207 201 207 202 196 189 193 137 187 194 189 199 191 186 213 199 187 209 203 214 172 194 201 199 216 239 274 357 395 360 317 309 298 300 295 302 291 293 302 303 315 346 323 319 333 318
213 212 208 195 203 205 178 195 191 190 190 146 132 199 208 180 196 189 201 199 215 154 184 202 201 214 240 170 357 353 345 318 297 298 287 271 297 283 288 280 293 289 292 302 307 161 314
210 195 211 209 204 202 179 197 184 195 197 194 195 186 190 210 195 207 199 199 175 179 185 195 200 214 239 169 346 341 309 337 299 301 289 272 293 276 278 274 276 282 279 289 180 304 200
211 206 206 213 206 203 200 204 174 201 134 200 168 187 178 187 164 215 213 219 207 187 182 197 193 205 235 168 312 330 336 314 329 297 298 282 286 280 281 278 280 288 281 284 204 280 176
214 216 210 210 209 221 212 197 201 128 187 197 147 188 193 190 207 189 214 218 203 182 187 190 190 208 229 267 290 335 314 323 312 305 288 274 280 271 274 269 267 270 286 286 297 292 300
224 212 216 214 198 204 217 214 201 205 191 201 193 198 157 194 192 155 188 215 199 173 195 197 196 209 225 153 276 350 328 308 313 285 301 283 259 262 272 278 271 284 271 297 288 287 304
242 247 185 215 212 214 210 218 210 205 198 198 152 196 188 178 182 171 205 215 192 168 189 196 196 202 219 155 271 325 341 319 301 315 290 291 292 275 268 273 278 195 277 295 300 317 334
252 240 185 221 224 223 210 214 220 210 206 202 212 191 199 206 204 203 196 210 184 175 189 194 200 200 217 239 268 289 331 341 318 300 303 308 289 270 131 275 284 286 280 319 301 280 204
249 244 248 253 225 220 230 207 209 215 209 204 208 187 193 163 200 173 185 210 189 167 184 190 199 197 215 224 266 281 331 336 328 314 297 306 316 268 276 282 288 265 279 294 239 280 278
247 240 259 226 256 199 218 220 213 209 213 212 154 196 166 209 206 200 192 207 189 187 185 188 202 196 214 217 265 277 308 321 327 330 309 302 311 320 272 281 286 292 273 228 294 279 282
236 251 223 207 251 258 231 214 222 212 214 212 153 192 165 204 204 201 192 212 192 178 180 188 194 201 208 217 255 278 297 322 338 328 339 313 304 308 299 280 285 290 280 308 259 281 288
263 269 227 275 237 244 266 227 208 207 215 209 187 197 165 194 199 177 193 182 191 180 175 188 188 188 193 213 226 277 290 329 329 349 349 345 316 307 306 311 280 180 280 312 252 286 286
264 267 198 236 245 179 249 250 220 194 196 218 211 200 166 196 199 209 185 168 194 181 190 184 182 194 203 208 218 188 290 296 314 310 320 335 343 328 317 311 318 292 139 296 294 283 284
240 262 254 265 253 256 226 260 221 240 220 213 212 207 167 191 188 175 190 211 193 177 175 183 186 190 199 207 210 215 258 170 277 313 318 317 318 326 333 328 318 300 163 288 235 176 299
332 242 258 264 264 267 250 248 277 231 209 218 205 212 166 171 198 204 198 208 191 183 173 180 187 185 187 197 201 212 223 268 260 310 329 345 331 324 315 319 316 303 308 243 160 135 303
361 256 247 257 263 269 256 247 271 228 201 218 210 210 199 155 202 210 190 200 196 183 180 170 186 178 188 192 203 207 216 231 247 306 327 366 309 356 346 335 310 313 310 137 195 140 289
350 324 244 242 256 261 250 262 271 264 212 221 209 211 203 167 207 179 186 209 200 179 176 172 186 191 189 192 192 204 212 213 230 242 322 356 349 313 316 312 316 358 307 290 206 170 159
370 332 244 252 266 256 258 254 262 285 203 213 212 214 202 157 206 192 178 164 199 188 193 169 185 183 186 179 186 193 205 208 213 220 242 273 345 327 325 320 325 347 305 289 158 291 158
357 327 295 254 243 251 264 270 259 275 212 195 202 209 204 187 204 197 194 158 201 185 177 199 188 188 189 196 181 191 193 207 206 211 217 231 250 331 333 335 334 346 321 202 301 155 248
319 303 254 243 241 256 263 293 275 259 218 206 215 206 206 201 206 179 194 173 180 196 185 168 170 170 179 190 185 185 193 191 199 207 212 218 218 242 261 347 349 351 336 270 168 167 165
Wind_Speed
44 41 42 46 45 40 40 37 46 46 46 46 37 56 49 54 55 53 56 41 51 51 55 57 61 57 62 64 72 69 77 80 86 90 93 95 96 98 97 98 101 98 100 99 90 93 103
47 42 43 49 48 47 41 45 44 48 48 49 47 37 49 39 51 45 47 46 49 52 52 55 51 48 60 66 72 76 75 85 87 90 76 68 69 73 74 85 87 81 103 97 93 98 92
58 42 49 53 54 48 45 45 50 43 42 49 49 51 52 52 53 51 47 53 46 51 54 39 46 62 64 71 70 73 83 90 67 68 65 64 54 48 42 46 50 50 53 51 86 91 97
65 45 56 52 53 48 45 45 52 49 48 38 49 44 49 43 52 47 52 53 52 51 57 55 60 64 70 74 75 82 87 68 27 25 26 32 37 38 39 41 44 46 47 50 44 47 89
68 51 60 54 56 55 47 52 53 48 52 50 45 44 45 42 46 51 44 55 55 50 57 57 61 65 71 69 81 82 67 37 30 28 32 37 39 44 49 47 46 46 45 47 43 47 42
71 68 63 59 60 58 48 52 53 53 54 52 51 49 49 45 45 45 51 47 52 56 54 59 64 67 72 78 81 60 63 33 34 33 21 16 21 22 23 37 50 48 47 45 44 47 60
73 71 67 64 62 60 57 54 60 52 53 53 51 47 45 50 44 52 46 52 52 57 54 56 64 71 75 80 90 61 32 30 27 8 10 16 19 25 21 15 21 34 38 36 38 45 58
81 74 72 69 65 62 45 58 60 56 52 54 52 55 48 43 47 48 48 51 50 57 57 63 65 71 76 82 80 26 23 21 8 17 8 9 9 12 18 19 21 7 20 30 33 42 52
82 81 78 69 70 67 65 62 61 59 52 47 47 51 53 47 41 48 46 49 48 54 59 62 65 69 75 82 61 26 17 7 13 19 15 9 9 9 14 18 20 14 1 11 22 27 34
81 80 80 74 74 72 68 66 51 62 59 62 58 53 47 51 48 39 46 45 48 55 55 60 64 70 74 83 60 20 11 13 10 16 8 14 7 11 16 18 18 20 3 20 14 11 18
84 82 79 79 75 71 64 68 66 63 61 50 43 58 57 43 45 38 47 45 47 45 55 58 63 67 71 49 55 33 9 11 14 13 13 16 6 8 12 7 14 15 10 12 24 48 37
84 81 84 81 79 75 63 69 68 65 61 61 60 54 53 54 44 47 45 46 40 49 53 56 60 65 69 49 58 42 33 12 15 14 10 13 3 5 2 2 2 3 15 13 37 22 39
88 86 85 87 82 78 75 71 63 66 46 60 53 55 47 45 39 46 44 44 42 48 50 55 57 63 68 46 72 44 31 26 9 11 9 9 3 8 9 10 9 10 7 14 16 28 45
93 93 89 88 86 83 79 75 70 43 62 61 47 56 54 45 49 37 41 41 40 46 49 52 53 60 64 71 75 43 38 29 20 13 11 10 7 7 9 5 5 5 7 10 15 16 18
101 93 96 92 82 80 82 76 73 68 64 61 61 59 45 45 41 37 38 38 38 42 46 51 54 58 63 23 72 39 36 31 24 15 11 10 4 4 11 12 9 10 5 8 15 15 16
95 92 77 95 87 85 80 80 75 71 64 61 51 60 50 44 42 43 39 35 37 38 44 47 51 54 57 28 66 52 34 31 28 19 13 10 18 7 6 12 14 17 6 4 10 3 6
94 96 76 99 100 92 81 80 77 73 68 62 54 59 57 45 42 35 34 33 35 36 41 44 47 50 55 62 64 66 44 29 24 25 20 16 11 11 29 9 3 5 6 18 23 19 9
99 99 96 96 99 93 93 79 75 73 69 61 55 59 54 45 38 33 29 31 32 33 38 41 43 46 51 57 61 62 49 35 26 22 20 16 14 16 9 7 5 11 9 24 25 26 20
100 102 98 88 93 76 88 85 77 73 69 61 49 58 49 46 37 32 29 30 30 31 35 37 39 41 47 52 57 58 58 44 32 24 18 15 12 12 9 8 7 8 18 24 34 34 30
101 110 88 83 90 90 99 81 79 75 70 63 49 59 47 45 38 35 28 29 25 30 33 34 36 38 42 50 56 56 57 48 34 28 18 14 11 9 13 11 12 14 20 30 30 31 24
105 104 96 101 90 92 87 92 75 72 72 66 58 59 44 41 38 38 29 29 26 29 30 29 33 35 36 44 52 54 54 48 38 28 20 14 11 10 13 12 14 27 20 31 33 32 32
102 103 82 94 95 72 90 95 75 70 67 68 64 60 46 44 39 35 29 30 26 28 23 28 28 32 33 38 47 32 51 49 43 39 32 21 11 9 10 12 12 15 25 29 39 37 35
101 104 105 109 97 93 82 85 73 81 73 73 65 62 48 45 37 40 31 30 27 28 27 26 25 29 29 33 39 46 55 12 39 42 35 29 19 11 4 10 14 15 25 27 27 23 35
95 99 105 110 105 96 89 85 86 76 70 74 68 63 49 42 42 38 35 32 28 27 26 22 21 25 24 27 30 41 46 51 37 44 36 24 18 10 6 4 8 11 21 23 26 27 33
87 101 101 101 105 98 88 84 83 75 70 73 70 65 59 39 43 44 36 34 30 27 25 23 20 19 24 23 26 32 40 47 52 45 41 27 30 11 3 2 9 8 20 27 23 28 31
81 96 91 93 102 99 81 83 83 87 76 77 71 67 61 54 50 43 36 36 32 29 27 23 20 16 20 21 19 26 33 37 47 52 42 32 28 27 21 16 9 12 18 14 22 21 22
77 87 97 97 105 96 85 84 78 81 78 75 73 68 63 48 52 46 40 32 33 30 26 23 22 19 18 15 18 17 24 30 35 40 50 53 29 26 22 17 11 12 14 13 26 24 25
80 86 94 96 96 94 93 85 78 79 82 74 72 72 66 55 55 47 45 34 37 33 31 24 23 19 15 12 11 16 15 23 25 31 35 43 53 31 25 18 13 10 18 22 21 27 27
81 87 99 97 81 89 79 85 80 78 82 79 77 76 69 62 57 51 47 42 39 36 34 26 23 19 19 14 13 11 12 13 17 23 28 33 32 48 48 20 14 12 17 17 25 26 24
Wind_Direction
242 241 245 255 259 259 258 259 256 260 261 265 265 265 268 270 272 274 272 283 274 282 282 284 294 290 282 282 280 281 280 279 276 275 274 272 269 265 262 261 259 257 251 245 247 240 235
247 248 251 264 252 256 250 254 260 256 261 262 264 266 270 273 274 281 279 284 282 283 283 293 294 291 288 285 284 284 285 283 282 280 282 280 275 270 266 263 263 261 253 250 246 241 245
252 249 252 267 257 253 254 253 256 260 266 260 266 270 270 270 272 277 281 279 286 286 285 290 293 290 287 288 289 290 288 293 300 293 286 282 273 273 265 256 253 251 249 246 242 240 237
259 252 258 253 264 249 254 256 257 261 263 275 262 271 273 278 274 284 279 281 284 290 286 298 294 294 293 292 293 296 306 309 305 304 301 293 285 278 274 258 249 249 248 249 248 243 236
258 253 259 257 260 259 258 258 264 259 264 266 267 275 277 278 282 277 297 281 285 286 289 299 298 299 299 298 305 307 316 311 308 301 296 294 286 273 266 263 255 251 251 243 246 241 229
256 257 254 256 258 260 253 261 259 274 264 268 270 272 270 285 284 288 282 295 290 286 293 296 298 301 302 310 311 323 305 313 303 303 325 22 5 326 290 260 253 251 243 242 246 239 223
250 253 253 252 254 254 253 260 257 258 273 275 263 268 273 273 287 279 290 284 299 289 294 297 301 308 309 317 327 316 319 311 309 52 320 34 34 40 20 345 279 252 256 249 251 236 226
250 252 252 252 251 252 251 256 256 256 258 266 273 283 272 276 289 298 301 285 300 290 295 300 305 310 316 327 333 320 314 310 302 297 348 352 323 37 39 29 14 333 250 243 239 231 227
247 249 249 251 250 250 252 253 255 256 255 255 263 274 283 279 283 301 296 304 300 296 298 302 309 313 325 332 336 331 311 292 302 306 305 337 4 27 29 40 30 11 56 224 221 227 233
248 246 248 247 248 249 249 252 255 255 260 263 270 272 272 288 286 291 299 300 304 293 304 309 312 320 330 338 343 324 305 288 270 303 320 329 22 45 38 35 70 65 10 128 139 159 198
249 249 247 248 247 246 245 249 251 254 257 258 261 273 283 269 287 288 296 296 306 295 301 311 315 322 334 324 349 348 312 276 311 294 319 336 29 59 77 17 56 92 75 165 179 210 201
246 246 248 247 246 245 247 246 249 253 255 260 266 270 271 284 284 293 297 296 298 297 304 312 317 325 339 326 353 355 350 313 311 287 292 342 314 330 318 330 271 203 167 161 208 236 221
247 244 246 247 247 246 244 245 249 249 250 258 259 265 260 276 273 296 300 301 301 299 305 314 321 326 341 332 352 351 352 360 279 299 280 314 307 331 278 295 320 315 278 243 234 229 220
247 247 244 245 247 247 244 244 245 240 249 254 254 261 267 276 285 288 300 300 301 299 310 315 322 329 343 350 354 351 351 354 356 283 307 337 301 314 300 311 285 288 335 275 204 226 242
242 244 246 244 245 245 244 241 242 243 245 250 254 260 254 270 274 271 290 299 299 301 312 316 322 332 344 325 355 355 344 348 349 333 269 305 305 283 314 324 288 275 270 282 229 247 256
243 239 239 243 242 242 243 242 239 241 241 244 254 256 260 259 269 269 291 295 294 300 309 317 323 330 346 332 356 358 353 339 346 341 317 306 245 270 287 301 283 276 254 270 209 208 220
240 239 237 241 242 242 239 242 239 238 240 242 245 252 259 264 270 279 285 289 289 299 308 317 324 331 347 355 357 357 358 350 334 338 336 315 265 277 179 234 296 261 223 141 130 136 216
239 239 237 238 238 239 240 237 240 238 237 237 239 249 254 251 265 267 275 284 288 297 306 315 324 332 348 354 358 358 358 356 344 331 329 319 292 292 250 243 197 196 191 164 163 160 183
235 238 236 236 236 233 237 235 235 236 235 232 242 243 248 256 261 266 270 280 284 293 303 313 327 331 348 354 2 0 359 356 353 335 324 325 314 292 278 241 184 195 206 181 163 175 190
234 234 234 235 234 235 233 230 231 233 234 230 239 239 247 250 255 261 266 271 276 289 299 311 321 333 346 356 5 3 2 359 353 350 330 317 313 286 246 261 219 196 203 178 182 187 208
228 231 235 233 232 232 232 232 224 227 231 227 230 235 242 240 246 246 258 260 270 280 295 307 317 324 336 357 3 8 6 4 6 358 342 320 306 291 263 247 214 199 185 177 181 170 204
224 226 232 234 230 228 233 228 225 221 227 225 224 228 239 235 241 249 245 255 261 272 286 301 314 325 342 358 4 357 11 10 8 11 12 6 333 317 269 240 217 200 198 177 179 191 192
223 223 228 233 231 226 228 229 225 231 223 221 222 223 237 230 228 237 245 249 251 266 281 293 306 317 337 358 6 7 20 354 13 11 9 11 15 11 287 214 194 187 194 181 195 209 199
208 222 222 227 231 228 224 226 225 219 217 218 219 219 230 231 229 235 241 241 242 254 273 286 298 312 327 346 3 9 14 22 18 16 12 8 8 16 22 172 187 178 192 193 200 205 195
203 214 220 224 229 228 220 223 222 216 215 217 218 217 222 227 228 234 234 235 237 245 259 280 288 303 315 333 2 13 14 23 28 22 19 15 29 18 56 195 124 178 180 228 203 215 183
200 198 219 222 226 227 221 221 222 217 214 212 216 215 218 231 224 225 223 229 234 239 254 268 273 289 306 323 345 11 19 22 29 33 25 23 28 39 49 60 92 173 167 179 204 209 215
196 196 213 217 220 225 222 219 219 217 211 208 213 212 217 232 221 222 223 231 230 233 236 259 263 278 294 313 328 357 18 25 29 30 37 39 33 38 46 57 81 143 136 146 215 173 226
191 187 203 212 219 224 222 217 214 213 204 213 212 211 214 220 220 215 219 228 227 228 239 237 250 258 275 295 321 337 2 25 28 34 35 37 46 38 42 50 69 134 155 205 165 231 188
189 193 204 212 218 221 220 217 213 208 202 208 204 211 212 214 216 220 218 226 226 227 228 245 253 266 272 272 294 314 342 3 20 34 37 38 42 47 51 52 72 113 147 189 224 230 236